[[{"header":{"parameterUnit":"m.s-1","parameterCategory":1,"la1":30.2991,"la2":30.254,"lo1":-89.0895,"lo2":-89.0444,"dy":0.0017,"dx":0.0017,"nx":28,"ny":28,"refTime":"2024-06-08T21:00:00:Z","depth":0,"parameterNumber":2,"parameterNumberName":"U-component_of_WINDS"},"data":[0,0,0,0,0,0,0,0,0,0,0,0,0,0,0,0,0,0,0,0,0,0,0,0,0,0,0,0,0,0,0,0,0,0,0,0,0,0,0,0,0,0,0,0,0,0,0,0,0,0,0,0,0,0,0,0,0,0,3.233,3.233,0,3.2329,3.2329,3.2329,3.2229,3.2227,3.2224,3.2222,3.2222,3.2225,3.2227,0,0,0,0,0,0,0,0,0,0,0,0,0,3.2246,3.2248,3.233,3.233,3.233,3.2329,3.2329,3.2329,3.223,3.2226,3.2223,3.222,3.2222,3.2224,3.2227,0,0,0,0,0,0,0,0,0,0,0,0,0,3.2268,3.2249,3.233,3.228,3.2276,3.2329,3.2329,3.2329,3.223,3.2226,3.2222,3.2219,3.2221,3.2224,3.2228,3.2329,0,0,3.2239,3.2241,0,0,0,0,0,0,0,0,3.2267,3.2271,3.2288,3.2284,3.2279,3.2275,3.2299,3.2329,3.2231,3.2248,3.2221,3.2217,3.2243,3.2245,3.2253,3.2329,3.2329,3.2239,3.2242,3.2243,3.2244,0,0,0,0,0,0,0,3.2265,3.227,3.233,3.2288,3.2283,3.2258,3.2257,3.2304,3.2268,3.2246,3.2239,3.224,3.224,3.225,3.2252,3.2329,3.2239,3.2243,3.2245,3.2246,3.2482,3.2486,0,0,0,0,0,0,3.2271,3.227,3.233,3.2329,3.2263,3.2263,3.2261,3.228,3.2267,3.2261,3.2243,3.2235,3.2246,3.2248,3.2252,3.2365,3.2243,3.2247,3.2249,3.2478,3.2483,3.2487,0,0,0,0,0,0,3.2269,3.2277,3.233,3.2298,3.2302,3.2268,3.229,3.2282,3.2292,3.2264,3.2257,3.226,3.2243,3.2247,3.2309,3.2364,3.2248,3.2252,3.2473,3.2479,3.2485,3.2596,0,0,0,0,0,0,3.2267,3.2277,3.2315,3.2299,3.2305,3.2387,3.2294,3.2285,3.2298,3.2288,3.2278,3.2273,3.224,3.2304,3.2313,3.2367,3.2254,3.2468,3.2476,3.2483,3.2587,3.2605,3.262,0,0,0,0,0,3.2265,3.2348,3.2318,3.2326,3.2352,3.2391,3.2394,3.2353,3.2303,3.2341,3.2322,3.2273,3.2357,3.2311,3.232,3.2377,3.2464,3.2473,3.2482,3.258,3.2601,3.262,0,0,0,0,0,0,3.2374,3.2346,3.2311,3.2393,3.2394,3.2374,3.242,3.2378,3.2395,3.2385,3.2334,3.2333,3.2402,3.2396,3.2345,3.2471,3.2402,3.2413,3.2473,3.2493,3.2509,3.2509,3.2258,0,0,0,0,0,3.2407,3.2441,3.2414,3.2488,3.2491,3.2456,3.2471,3.2439,3.244,3.244,3.2427,3.243,3.2455,3.2474,3.2498,3.2586,3.258,3.2629,3.2645,3.2659,3.2669,3.2711,3.2731,3.2517,3.2517,3.2517,0,0,3.2477,3.2465,3.249,3.251,3.2508,3.2543,3.2457,3.2499,3.2524,3.2447,3.2503,3.2494,3.2493,3.2567,3.26,3.2564,3.2727,3.2671,3.2682,3.2684,3.2723,3.2743,3.2761,3.2523,3.2522,3.2521,0,0,3.2621,3.2617,3.2676,3.2675,3.2671,3.2647,3.2661,3.2646,3.2635,3.2691,3.2632,3.2662,3.271,3.271,3.2717,3.2857,3.2811,3.2866,3.2952,3.2994,3.301,3.3025,3.3072,3.3089,3.2876,3.2876,3.2876,0,3.2708,3.2758,3.2712,3.2756,3.2765,3.2695,3.2753,3.2754,3.276,3.2767,3.2727,3.2782,3.2778,3.2849,3.2882,3.2892,3.2904,3.2866,3.3012,3.3026,3.3039,3.3083,3.3101,3.2883,3.2882,3.2881,3.2881,0,3.2864,3.2899,3.2947,3.2951,3.2965,3.3017,3.2977,3.2998,3.2964,3.2943,3.2999,3.299,3.3008,3.3023,3.2992,3.3089,3.3067,3.3021,3.2949,3.3066,3.3106,3.3123,3.2892,3.289,3.2888,3.2886,0,0,3.3078,3.3052,3.3071,3.3069,3.3059,3.3085,3.3133,3.3148,3.3165,3.3171,3.3207,3.3247,3.3203,3.321,3.3178,3.3215,3.3322,3.3163,3.3162,3.319,3.3424,3.3457,3.3478,3.3292,3.3295,3.3297,3.3423,0,3.3214,3.3292,3.325,3.3333,3.3363,3.3295,3.3335,3.3333,3.3314,3.3337,3.3316,3.3344,3.3285,3.3288,3.3322,3.3302,3.3368,3.3292,3.3323,3.3325,3.3323,3.3499,3.3535,3.3655,3.3439,3.3442,3.3444,0,3.3384,3.3393,3.3479,3.3458,3.3469,3.3506,3.3515,3.3538,3.3533,3.3517,3.3523,3.3481,3.3524,3.3455,3.3512,3.3462,3.3472,3.3464,3.3467,3.3467,3.339,3.3501,3.3692,3.3709,3.3469,3.3467,3.3465,0,3.3527,3.3562,3.3615,3.3617,3.3596,3.3623,3.3615,3.3606,3.3617,3.3625,3.3631,3.3646,3.3653,3.3664,3.3626,3.358,3.3687,3.3616,3.3673,3.3674,3.3698,3.3696,3.389,3.3709,3.3709,3.3709,3.3708,0,3.3682,3.3737,3.3679,3.3712,3.3769,3.372,3.3779,3.3764,3.3756,3.3784,3.3728,3.3756,3.3705,3.3727,3.3698,3.3748,3.3753,3.3739,3.373,3.3743,3.3744,3.3747,3.3737,3.3713,3.3712,3.3711,3.371,0,3.3852,3.3816,3.3869,3.3843,3.3838,3.3881,3.3859,3.3888,3.3864,3.39,3.3906,3.3869,3.3892,3.3856,3.3876,3.3856,3.3923,3.3904,3.3925,3.3918,3.3976,3.397,3.4177,3.42,3.4007,3.4009,3.401,0,3.3952,3.3991,3.3968,3.3982,3.3977,3.4001,3.401,3.3963,3.3975,3.397,3.3999,3.4017,3.4029,3.4068,3.4043,3.4057,3.4035,3.4107,3.4037,3.4047,3.4032,3.4029,3.4031,3.412,3.4123,3.4125,3.4126,0,3.4132,3.4111,3.4126,3.4135,3.4147,3.4152,3.4153,3.4168,3.4118,3.4134,3.4156,3.4165,3.4182,3.42,3.4207,3.4199,3.4154,3.4148,3.4162,3.4174,3.4183,3.4175,3.396,3.4144,3.4142,3.4141,3.414,3.4139,3.4267,3.4297,3.4284,3.4302,3.4297,3.4298,3.4322,3.4301,3.4317,3.4327,3.4298,3.4326,3.4317,3.4321,3.4317,3.4338,3.4306,3.4327,3.4331,3.4336,3.4343,3.4182,3.4339,3.4339,3.4338,3.4338,3.4337,0,3.4441,3.4428,3.4446,3.4446,3.446,3.4415,3.4413,3.4427,3.4452,3.4446,3.4458,3.4481,3.4497,3.4472,3.4483,3.4504,3.4483,3.4508,3.4505,3.4503,3.4373,3.4358,3.4525,3.4525,3.4524,3.4524,3.4524,3.4524,3.4533,3.458,3.4557,3.46,3.4587,3.4612,3.4614,3.4614,3.4608,3.4636,3.4648,3.4631,3.4617,3.4627,3.4639,3.4631,3.4636,3.4668,3.4653,3.4531,3.4513,3.4495,3.4481,3.467,3.4671,3.478,3.4782,3.4782]},{"header":{"parameterUnit":"m.s-1","parameterCategory":1,"la1":30.2991,"la2":30.254,"lo1":-89.0895,"lo2":-89.0444,"dy":0.0017,"dx":0.0017,"nx":28,"ny":28,"refTime":"2024-06-08T21:00:00:Z","depth":0,"parameterNumber":3,"parameterNumberName":"V-component_of_WINDS"},"data":[0,0,0,0,0,0,0,0,0,0,0,0,0,0,0,0,0,0,0,0,0,0,0,0,0,0,0,0,0,0,0,0,0,0,0,0,0,0,0,0,0,0,0,0,0,0,0,0,0,0,0,0,0,0,0,0,0,0,3.6876,3.6877,0,3.6996,3.6997,3.6999,3.7011,3.701,3.7009,3.7008,3.7126,3.7131,3.7135,0,0,0,0,0,0,0,0,0,0,0,0,0,3.6651,3.6656,3.6876,3.6877,3.6879,3.6996,3.6997,3.6999,3.7011,3.701,3.7009,3.7007,3.7125,3.713,3.7135,0,0,0,0,0,0,0,0,0,0,0,0,0,3.6758,3.6657,3.6875,3.6899,3.6902,3.6995,3.6997,3.6999,3.7012,3.701,3.7008,3.7006,3.7123,3.713,3.7136,3.7212,0,0,3.7156,3.7158,0,0,0,0,0,0,0,0,3.6752,3.6766,3.6894,3.6898,3.6901,3.6987,3.6962,3.7071,3.7012,3.697,3.7008,3.7006,3.7081,3.7091,3.7117,3.7218,3.7223,3.7156,3.716,3.7163,3.7165,0,0,0,0,0,0,0,3.6744,3.6761,3.6923,3.6896,3.69,3.6902,3.6915,3.6983,3.7034,3.6974,3.6975,3.6989,3.7083,3.7111,3.712,3.7225,3.7156,3.7162,3.7166,3.7168,3.7392,3.7394,0,0,0,0,0,0,3.6733,3.6755,3.6919,3.6927,3.6821,3.6907,3.6922,3.6961,3.7034,3.7043,3.6991,3.6989,3.7101,3.7113,3.7124,3.7218,3.7163,3.7169,3.7173,3.739,3.7392,3.7395,0,0,0,0,0,0,3.6728,3.6748,3.6914,3.6841,3.6862,3.6913,3.6957,3.6965,3.6993,3.7047,3.7055,3.701,3.71,3.7115,3.719,3.7222,3.7172,3.7178,3.7387,3.7391,3.7393,3.7406,0,0,0,0,0,0,3.6722,3.6746,3.6777,3.6842,3.6866,3.698,3.6959,3.6968,3.7005,3.7004,3.7067,3.7076,3.71,3.7181,3.7197,3.723,3.7183,3.7385,3.7389,3.7393,3.7403,3.7409,3.7414,0,0,0,0,0,3.6714,3.6775,3.6778,3.6798,3.6906,3.6982,3.6996,3.7023,3.7007,3.7038,3.7072,3.7074,3.7216,3.7188,3.7206,3.7242,3.7383,3.7388,3.7392,3.74,3.7408,3.7414,0,0,0,0,0,0,3.6711,3.6784,3.6789,3.6873,3.6921,3.6984,3.7023,3.703,3.7083,3.708,3.711,3.7124,3.7198,3.7227,3.7195,3.7319,3.7298,3.7306,3.7297,3.7305,3.731,3.7302,3.7188,0,0,0,0,0,3.6721,3.6778,3.6837,3.6905,3.693,3.6972,3.7006,3.7023,3.7074,3.7094,3.7133,3.7181,3.7236,3.7272,3.7326,3.7407,3.742,3.744,3.7446,3.745,3.7457,3.7501,3.751,3.741,3.741,3.741,0,0,3.674,3.6787,3.6821,3.6906,3.6946,3.7002,3.6989,3.705,3.7092,3.7103,3.7176,3.7207,3.7262,3.7339,3.7376,3.7366,3.7488,3.7456,3.7459,3.7464,3.7506,3.7516,3.7524,3.7413,3.7413,3.7412,0,0,3.6805,3.6847,3.6908,3.6948,3.7008,3.7036,3.705,3.7112,3.7133,3.7207,3.7216,3.7265,3.736,3.7399,3.7431,3.7509,3.7512,3.7525,3.7555,3.7597,3.7605,3.7612,3.7639,3.7649,3.7532,3.7532,3.7532,0,3.6822,3.6909,3.6938,3.6998,3.7035,3.7048,3.7109,3.7146,3.722,3.7244,3.7233,3.7352,3.739,3.7476,3.7495,3.7521,3.7537,3.7518,3.7602,3.7609,3.7616,3.7642,3.7652,3.7533,3.7533,3.7533,3.7533,0,3.6926,3.6986,3.7027,3.71,3.7141,3.7201,3.7238,3.7276,3.7288,3.7316,3.7391,3.7437,3.75,3.7522,3.7534,3.761,3.7602,3.7596,3.7575,3.7627,3.7651,3.7662,3.7535,3.7534,3.7534,3.7534,0,0,3.6993,3.708,3.7095,3.7128,3.7194,3.7241,3.73,3.7363,3.7395,3.7445,3.7495,3.7574,3.7569,3.7605,3.7622,3.7659,3.7716,3.7648,3.765,3.7659,3.7801,3.7805,3.7816,3.7719,3.7721,3.7723,3.7796,0,3.7065,3.7174,3.7201,3.7294,3.7349,3.7361,3.7413,3.7459,3.7486,3.7536,3.7565,3.7621,3.761,3.7632,3.7669,3.7702,3.7745,3.7697,3.7765,3.7767,3.7751,3.783,3.7834,3.7901,3.7806,3.7808,3.7809,0,3.7164,3.7217,3.7316,3.7374,3.7398,3.7445,3.7504,3.7551,3.7602,3.7619,3.766,3.7673,3.7734,3.7709,3.7793,3.7759,3.7788,3.7808,3.7811,3.7819,3.7791,3.7838,3.7924,3.7933,3.7825,3.7824,3.7822,0,3.7203,3.7299,3.737,3.7397,3.7468,3.75,3.753,3.758,3.7615,3.7666,3.7689,3.7746,3.7777,3.782,3.7847,3.7827,3.7928,3.7906,3.7943,3.7942,3.7964,3.7962,3.8054,3.7983,3.7982,3.7982,3.7982,0,3.728,3.734,3.7388,3.7432,3.7498,3.7527,3.7591,3.7622,3.7665,3.7714,3.7728,3.7772,3.7806,3.7855,3.7876,3.7941,3.7955,3.797,3.7975,3.7969,3.7967,3.7988,3.7984,3.7985,3.7984,3.7984,3.7983,0,3.7335,3.737,3.7448,3.7508,3.7524,3.757,3.7621,3.7663,3.769,3.7751,3.7767,3.781,3.7868,3.79,3.7972,3.7986,3.8059,3.8062,3.8042,3.8045,3.8079,3.8075,3.8188,3.8204,3.8122,3.8123,3.8124,0,3.7382,3.7428,3.7493,3.7527,3.7559,3.7613,3.765,3.768,3.7717,3.7778,3.7812,3.7871,3.792,3.8012,3.8048,3.8103,3.8107,3.8143,3.8115,3.8108,3.8107,3.8104,3.8108,3.8148,3.8148,3.8149,3.815,0,3.7462,3.7477,3.753,3.7588,3.7632,3.7679,3.7726,3.7752,3.779,3.783,3.7891,3.7929,3.8003,3.8061,3.8119,3.8148,3.8155,3.8158,3.8169,3.8163,3.815,3.8157,3.8055,3.8155,3.8155,3.8154,3.8154,3.8154,3.7514,3.7555,3.7607,3.7665,3.7704,3.7747,3.7789,3.7822,3.7873,3.7937,3.7951,3.8014,3.8062,3.8141,3.8172,3.822,3.8213,3.823,3.8234,3.8238,3.8239,3.8142,3.8231,3.8231,3.8231,3.8231,3.8231,0,3.7594,3.7628,3.7681,3.7746,3.7792,3.7795,3.7846,3.7884,3.794,3.7985,3.8033,3.8101,3.8157,3.8198,3.8255,3.8286,3.829,3.8299,3.8297,3.8304,3.8242,3.8227,3.8295,3.8295,3.8295,3.8295,3.8295,3.8295,3.7641,3.7711,3.7731,3.7819,3.7852,3.7916,3.7944,3.7984,3.802,3.8096,3.8143,3.817,3.8213,3.8273,3.8323,3.8334,3.8354,3.8363,3.8373,3.8315,3.8308,3.8302,3.8287,3.8367,3.8367,3.8431,3.8432,3.8432]}]]